Buffalo, NY

1:13 PM EST on November 13, 2019 (GMT -0500)
Buffalo Niagara International

Weather History for KBUF - September, 2019

Change the Weather History Date:

Wednesday, September 4, 2019

  Actual Average Record
Temperature  
Mean Temperature 69 °F 66 °F  
Max Temperature 76 °F 75 °F 94 °F (1953)
Min Temperature 61 °F 57 °F 44 °F (1946)
Degree Days  
Heating Degree Days 0 2  
Month to date heating degree days 0 7  
Since 1 July heating degree days 3 34  
Cooling Degree Days 4 3  
Month to date cooling degree days 12 13  
Year to date cooling degree days 557 500  
Growing Degree Days 18 (Base 50)    
Moisture  
Dew Point 58 °F    
Average Humidity 70    
Maximum Humidity 84    
Minimum Humidity 56    
Precipitation  
Precipitation 0.28 in 0.12 in 1.32 in (2012)
Month to date precipitation 1.83 0.47  
Year to date precipitation 30.20 25.63  
Snow  
Snow 0.00 in 0.00 in 0.00 in ()
Month to date snowfall 0.0 0.0  
Since 1 July snowfall 0.0 0.0  
Since 1 September snowfall 0.0 0.0  
Snow Depth 0.00 in    
Sea Level Pressure  
Sea Level Pressure 29.90 in    
Wind  
Wind Speed 13 mph (West)    
Max Wind Speed 24 mph    
Max Gust Speed 32 mph    
Visibility 9 miles    
Events Rain , Thunderstorm    
T = Trace of Precipitation, MM = Missing Value Source: NWS Daily Summary

Daily Weather History Graph

Daily Weather History Graph

Search for Another Location

Airport or City:

Astronomy

Sep. 04, 2019 Rise Set
Actual Time 6:42 AM EDT 7:44 PM EDT
Civil Twilight 6:13 AM EDT 8:13 PM EDT
Nautical Twilight 5:38 AM EDT 8:48 PM EDT
Astronomical Twilight 5:02 AM EDT 9:24 PM EDT
Moon 12:50 PM EDT (9/4) 11:08 PM EDT (9/4)
Length of Visible Light 14h 00m
Length of Day
13h 02m
Waxing Crescent, 34% of the Moon is Illuminated
Sep 4
Waxing Crescent
Sep 5
First Quarter
Sep 14
Full
Sep 21
Last Quarter
Sep 28
New

Hourly Weather History & Observations

Time (EDT) Temp. Dew Point Humidity Pressure Visibility Wind Dir Wind Speed Gust Speed Precip Events Conditions
12:54 AM 75.9 °F 62.1 °F 62% 29.77 in 10.0 mi SSW 18.4 mph 27.6 mph N/A   Mostly Cloudy
1:54 AM 75.0 °F 62.1 °F 64% 29.76 in 10.0 mi SSW 18.4 mph - N/A   Overcast
2:54 AM 75.0 °F 63.0 °F 66% 29.75 in 10.0 mi SSW 21.9 mph 29.9 mph N/A   Overcast
3:54 AM 75.0 °F 64.0 °F 69% 29.71 in 10.0 mi SSW 18.4 mph 26.5 mph N/A   Overcast
4:36 AM 75.0 °F 64.9 °F 71% 29.72 in 10.0 mi SSW 15.0 mph - 0.00 in Rain , Thunderstorm Light Thunderstorms and Rain
4:54 AM 72.0 °F 66.9 °F 84% 29.71 in 5.0 mi WSW 8.1 mph - 0.16 in Rain , Thunderstorm Light Thunderstorms and Rain
5:31 AM 73.0 °F 66.9 °F 81% 29.74 in 10.0 mi WSW 19.6 mph 32.2 mph 0.01 in   Overcast
6:35 AM 72.0 °F 68.0 °F 87% 29.77 in 2.0 mi West 18.4 mph 27.6 mph 0.00 in Rain Light Rain
6:44 AM 70.0 °F 62.1 °F 76% 29.77 in 4.0 mi WSW 13.8 mph - 0.11 in Rain Light Rain
6:54 AM 70.0 °F 64.0 °F 81% 29.77 in 10.0 mi West 13.8 mph - 0.11 in   Mostly Cloudy
7:54 AM 69.1 °F 60.1 °F 73% 29.81 in 10.0 mi West 11.5 mph - N/A   Mostly Cloudy
9:54 AM 70.0 °F 57.0 °F 63% 29.86 in 10.0 mi West 15.0 mph 27.6 mph N/A   Partly Cloudy
10:54 AM 72.0 °F 57.0 °F 59% 29.88 in 10.0 mi West 18.4 mph 26.5 mph N/A   Partly Cloudy
11:54 AM 72.0 °F 57.0 °F 59% 29.90 in 10.0 mi West 18.4 mph 27.6 mph N/A   Scattered Clouds
12:31 PM 72.0 °F 57.9 °F 61% 29.92 in 10.0 mi WNW 18.4 mph 23.0 mph N/A   Scattered Clouds
12:54 PM 70.0 °F 57.0 °F 63% 29.93 in 10.0 mi WNW 13.8 mph 24.2 mph N/A   Mostly Cloudy
1:54 PM 70.0 °F 55.9 °F 61% 29.95 in 10.0 mi WNW 12.7 mph 27.6 mph N/A   Mostly Cloudy
2:54 PM 68.0 °F 55.0 °F 63% 29.98 in 10.0 mi WNW 16.1 mph - N/A   Mostly Cloudy
3:54 PM 66.9 °F 53.1 °F 61% 29.99 in 10.0 mi WNW 13.8 mph - N/A   Mostly Cloudy
4:54 PM 66.9 °F 53.1 °F 61% 30.01 in 10.0 mi West 12.7 mph - N/A   Mostly Cloudy
5:54 PM 66.0 °F 53.1 °F 63% 30.03 in 10.0 mi NW 11.5 mph - N/A   Mostly Cloudy
6:54 PM 64.9 °F 51.1 °F 61% 30.05 in 10.0 mi NW 11.5 mph - N/A   Mostly Cloudy
7:54 PM 64.9 °F 51.1 °F 61% 30.07 in 10.0 mi NW 5.8 mph - N/A   Mostly Cloudy
8:54 PM 64.0 °F 48.9 °F 58% 30.09 in 10.0 mi West 4.6 mph - N/A   Mostly Cloudy
9:54 PM 64.0 °F 51.1 °F 63% 30.09 in 10.0 mi WNW 5.8 mph - N/A   Mostly Cloudy
10:54 PM 63.0 °F 51.1 °F 65% 30.09 in 10.0 mi West 5.8 mph - N/A   Mostly Cloudy
11:54 PM 62.1 °F 51.1 °F 67% 30.10 in 10.0 mi WNW 4.6 mph - N/A   Mostly Cloudy